When you browse on this site, cookies collect data to enhance your experience and personalize the content and advertising you see.
Visit our Privacy Policy to learn more. By continuing to use the site, you agree to this use of cookies and data.
  • In Austria
  • List of Countries
  • For 7 days
  • Water Temperature
  • Weather Map
  • News
  • Weather Widgets
  • user-avatar
    Login

    Hourly Weather Lipovec

    Today, 18 August, Sunday

    Time Temperature Precipitation Wind Pressure Humidity
    00:00 +14°C° 0 mm 2 mps 737 mmHg 86%
    01:00 +13°C° 0 mm 2 mps 738 mmHg 88%
    02:00 +13°C° 0 mm 2 mps 738 mmHg 87%
    03:00 +13°C° 0 mm 2 mps 738 mmHg 88%
    04:00 +13°C° 0 mm 2 mps 738 mmHg 89%
    05:00 +12°C° 0 mm 2 mps 738 mmHg 90%
    06:00 +14°C° 0 mm 2 mps 738 mmHg 82%
    07:00 +16°C° 0 mm 2 mps 738 mmHg 75%
    08:00 +19°C° 0 mm 3 mps 738 mmHg 65%
    09:00 +20°C° 0 mm 3 mps 738 mmHg 58%
    10:00 +21°C° 0 mm 3 mps 738 mmHg 52%
    11:00 +24°C° 0 mm 3 mps 739 mmHg 45%
    12:00 +25°C° 0 mm 3 mps 739 mmHg 43%
    13:00 +25°C° 0 mm 3 mps 739 mmHg 41%
    14:00 +26°C° 0 mm 4 mps 739 mmHg 39%
    15:00 +26°C° 0 mm 3 mps 739 mmHg 40%
    16:00 +26°C° 0 mm 3 mps 739 mmHg 42%
    17:00 +26°C° 0 mm 3 mps 739 mmHg 43%
    18:00 +23°C° 0 mm 2 mps 739 mmHg 50%
    19:00 +21°C° 0 mm 1 mps 739 mmHg 57%
    20:00 +19°C° 0 mm 1 mps 739 mmHg 64%
    21:00 +18°C° 0 mm 1 mps 740 mmHg 66%
    22:00 +18°C° 0 mm 1 mps 740 mmHg 68%
    23:00 +15°C° 0 mm 0 mps 740 mmHg 70%

    Tomorrow, 19 August, Monday

    Time Temperature Precipitation Wind Pressure Humidity
    00:00 +16°C° 0 mm 1 mps 740 mmHg 71%
    01:00 +16°C° 0 mm 1 mps 740 mmHg 72%
    02:00 +16°C° 0 mm 1 mps 740 mmHg 72%
    03:00 +15°C° 0 mm 1 mps 740 mmHg 73%
    04:00 +15°C° 0 mm 1 mps 740 mmHg 73%
    05:00 +15°C° 0 mm 2 mps 740 mmHg 74%
    06:00 +17°C° 0 mm 2 mps 741 mmHg 67%
    07:00 +19°C° 0 mm 2 mps 741 mmHg 61%
    08:00 +21°C° 0 mm 2 mps 741 mmHg 55%
    09:00 +24°C° 0 mm 2 mps 742 mmHg 51%
    10:00 +26°C° 0 mm 1 mps 742 mmHg 47%
    11:00 +27°C° 0 mm 1 mps 742 mmHg 44%
    12:00 +28°C° 0 mm 1 mps 742 mmHg 42%
    13:00 +29°C° 0 mm 1 mps 742 mmHg 40%
    14:00 +28°C° 0 mm 0 mps 742 mmHg 38%
    15:00 +30°C° 0 mm 1 mps 742 mmHg 38%
    16:00 +29°C° 0 mm 1 mps 742 mmHg 38%
    17:00 +29°C° 0 mm 1 mps 742 mmHg 39%
    18:00 +27°C° 0 mm 1 mps 742 mmHg 43%
    19:00 +25°C° 0 mm 1 mps 742 mmHg 48%
    20:00 +23°C° 0 mm 2 mps 742 mmHg 53%
    21:00 +21°C° 0 mm 2 mps 742 mmHg 54%
    22:00 +20°C° 0 mm 2 mps 742 mmHg 54%
    23:00 +20°C° 0 mm 2 mps 742 mmHg 55%

    Day after tomorrow, 20 August, Tuesday

    Time Temperature Precipitation Wind Pressure Humidity
    00:00 +19°C° 0 mm 2 mps 742 mmHg 56%
    01:00 +19°C° 0 mm 2 mps 742 mmHg 56%
    02:00 +18°C° 0 mm 2 mps 743 mmHg 56%
    03:00 +18°C° 0 mm 2 mps 743 mmHg 57%
    04:00 +19°C° 0 mm 1 mps 743 mmHg 57%
    05:00 +18°C° 0 mm 1 mps 743 mmHg 58%
    06:00 +20°C° 0 mm 1 mps 743 mmHg 55%
    07:00 +22°C° 0 mm 1 mps 743 mmHg 51%
    08:00 +24°C° 0 mm 1 mps 744 mmHg 48%
    09:00 +26°C° 0 mm 1 mps 744 mmHg 44%
    10:00 +28°C° 0 mm 1 mps 744 mmHg 40%
    11:00 +29°C° 0 mm 1 mps 744 mmHg 36%
    12:00 +30°C° 0 mm 1 mps 744 mmHg 35%
    13:00 +31°C° 0 mm 1 mps 744 mmHg 34%
    14:00 +31°C° 0 mm 1 mps 744 mmHg 33%
    15:00 +31°C° 0 mm 1 mps 744 mmHg 33%
    16:00 +31°C° 0 mm 2 mps 743 mmHg 34%
    17:00 +30°C° 0 mm 2 mps 743 mmHg 34%
    18:00 +28°C° 0 mm 2 mps 743 mmHg 39%
    19:00 +26°C° 0 mm 2 mps 743 mmHg 44%
    20:00 +23°C° 0 mm 2 mps 743 mmHg 49%
    21:00 +23°C° 0 mm 2 mps 743 mmHg 51%
    22:00 +22°C° 0 mm 1 mps 744 mmHg 54%
    23:00 +21°C° 0 mm 1 mps 744 mmHg 56%

    21 August, Wednesday

    Time Temperature Precipitation Wind Pressure Humidity
    00:00 +21°C° 0 mm 1 mps 744 mmHg 57%
    01:00 +20°C° 0 mm 1 mps 743 mmHg 57%
    02:00 +20°C° 0 mm 1 mps 743 mmHg 57%
    03:00 +20°C° 0 mm 1 mps 743 mmHg 59%
    04:00 +19°C° 0 mm 1 mps 743 mmHg 61%
    05:00 +19°C° 0 mm 1 mps 743 mmHg 63%
    06:00 +21°C° 0 mm 1 mps 743 mmHg 59%
    07:00 +23°C° 0 mm 1 mps 743 mmHg 55%
    08:00 +25°C° 0 mm 2 mps 744 mmHg 51%
    09:00 +26°C° 0 mm 2 mps 743 mmHg 47%
    10:00 +28°C° 0 mm 2 mps 743 mmHg 43%
    11:00 +29°C° 0 mm 2 mps 743 mmHg 38%
    12:00 +30°C° 0 mm 2 mps 743 mmHg 36%
    13:00 +31°C° 0 mm 3 mps 743 mmHg 34%
    14:00 +31°C° 0 mm 3 mps 742 mmHg 31%
    15:00 +31°C° 0 mm 3 mps 742 mmHg 33%
    16:00 +31°C° 0 mm 3 mps 742 mmHg 34%
    17:00 +30°C° 0 mm 3 mps 742 mmHg 35%
    18:00 +28°C° 0 mm 3 mps 742 mmHg 42%
    19:00 +26°C° 0 mm 3 mps 742 mmHg 49%
    20:00 +22°C° 0 mm 3 mps 742 mmHg 55%
    21:00 +23°C° 0 mm 2 mps 742 mmHg 56%
    22:00 +21°C° 0 mm 2 mps 742 mmHg 58%
    23:00 +20°C° 0 mm 2 mps 742 mmHg 59%

    22 August, Thursday

    Time Temperature Precipitation Wind Pressure Humidity
    00:00 +20°C° 0 mm 2 mps 742 mmHg 60%
    01:00 +19°C° 0 mm 2 mps 742 mmHg 61%
    02:00 +19°C° 0 mm 2 mps 742 mmHg 62%
    03:00 +19°C° 0 mm 2 mps 741 mmHg 64%
    04:00 +18°C° 0 mm 2 mps 741 mmHg 66%
    05:00 +18°C° 0 mm 2 mps 741 mmHg 68%
    06:00 +20°C° 0 mm 3 mps 741 mmHg 64%
    07:00 +22°C° 0 mm 3 mps 742 mmHg 60%
    08:00 +24°C° 0 mm 3 mps 742 mmHg 56%
    09:00 +26°C° 0 mm 3 mps 742 mmHg 51%
    10:00 +28°C° 0 mm 4 mps 742 mmHg 45%
    11:00 +30°C° 0 mm 4 mps 742 mmHg 40%
    12:00 +30°C° 0 mm 4 mps 742 mmHg 39%
    13:00 +32°C° 0 mm 4 mps 742 mmHg 38%
    14:00 +32°C° 0 mm 4 mps 742 mmHg 37%
    15:00 +30°C° 0 mm 5 mps 742 mmHg 41%
    16:00 +30°C° 0 mm 5 mps 742 mmHg 44%
    17:00 +29°C° 0 mm 5 mps 742 mmHg 48%
    18:00 +27°C° 0 mm 5 mps 742 mmHg 59%
    19:00 +25°C° 0 mm 5 mps 742 mmHg 70%
    20:00 +22°C° 0 mm 5 mps 742 mmHg 81%
    21:00 +21°C° 0 mm 5 mps 742 mmHg 85%
    22:00 +21°C° 0 mm 5 mps 742 mmHg 89%
    23:00 +20°C° 0 mm 5 mps 742 mmHg 94%

    23 August, Friday

    Time Temperature Precipitation Wind Pressure Humidity
    00:00 +19°C° 0 mm 5 mps 742 mmHg 94%
    01:00 +19°C° 0 mm 5 mps 742 mmHg 94%
    02:00 +17°C° 0 mm 5 mps 742 mmHg 95%
    03:00 +17°C° 0 mm 5 mps 742 mmHg 94%
    04:00 +17°C° 0 mm 5 mps 742 mmHg 94%
    05:00 +17°C° 0 mm 5 mps 742 mmHg 93%
    06:00 +19°C° 0 mm 5 mps 742 mmHg 88%
    07:00 +20°C° 0 mm 5 mps 743 mmHg 84%
    08:00 +21°C° 0 mm 5 mps 743 mmHg 79%
    09:00 +22°C° 0 mm 5 mps 743 mmHg 74%
    10:00 +23°C° 0 mm 5 mps 743 mmHg 70%
    11:00 +25°C° 0 mm 5 mps 743 mmHg 65%
    12:00 +24°C° 0 mm 6 mps 743 mmHg 65%
    13:00 +24°C° 0 mm 6 mps 743 mmHg 64%
    14:00 +24°C° 0 mm 6 mps 743 mmHg 63%
    15:00 +23°C° 0 mm 6 mps 743 mmHg 64%
    16:00 +23°C° 0 mm 6 mps 743 mmHg 65%
    17:00 +22°C° 0 mm 6 mps 743 mmHg 67%
    18:00 +21°C° 0 mm 5 mps 744 mmHg 71%
    19:00 +20°C° 0 mm 4 mps 744 mmHg 75%
    20:00 +18°C° 0 mm 4 mps 744 mmHg 80%
    21:00 +18°C° 0 mm 4 mps 744 mmHg 79%
    22:00 +17°C° 0 mm 4 mps 744 mmHg 78%
    23:00 +15°C° 0 mm 4 mps 745 mmHg 78%
    Show more